Location: Paris
(48.6709°N, 2.3750°E)
Time: 10:25:45
(UTC+02:00)

QB50P2 - Visible Passes

Search period start: 27 June 2022 00:00
Search period end: 07 July 2022 00:00
Orbit: 589 x 607 km, 97.9° (Epoch: 26 June)

Date Brightness Start Highest point End Pass type
(mag) Time Alt. Az. Time Alt. Az. Time Alt. Az.
27 Jun ? 03:00:38 10° NNE 03:04:45 50° E 03:06:57 25° SSE visible
27 Jun ? 04:37:02 10° NNW 04:40:06 20° WNW 04:43:09 10° WSW visible
28 Jun ? 03:11:02 10° NNE 03:15:15 64° ESE 03:17:32 26° S visible
28 Jun ? 04:47:50 10° NNW 04:50:27 16° WNW 04:53:05 10° W visible
29 Jun ? 03:21:29 10° NNE 03:25:44 82° ESE 03:28:06 26° S visible
29 Jun ? 04:58:46 10° NNW 05:00:48 13° WNW 05:02:50 10° W visible
30 Jun ? 01:58:22 10° ENE 02:00:00 12° E 02:01:38 10° ESE visible
30 Jun ? 03:31:58 10° NNE 03:36:12 78° WNW 03:38:40 24° SSW visible
01 Jul ? 02:08:05 10° NE 02:10:35 15° E 02:12:32 12° ESE visible
01 Jul ? 03:42:28 10° N 03:46:39 62° WNW 03:49:14 22° SSW visible
02 Jul ? 02:18:07 10° NE 02:21:10 19° E 02:23:05 15° SE visible
02 Jul ? 03:53:00 10° N 03:57:05 48° WNW 03:59:48 20° SW visible
03 Jul ? 02:28:16 10° NE 02:31:43 24° E 02:33:39 18° SE visible
03 Jul ? 04:03:33 10° N 04:07:30 38° WNW 04:10:21 17° SW visible
04 Jul ? 02:38:30 10° NNE 02:42:15 30° E 02:44:12 21° SE visible
04 Jul ? 04:14:09 10° N 04:17:54 31° WNW 04:20:54 14° WSW visible
05 Jul ? 02:48:48 10° NNE 02:52:46 37° E 02:54:44 24° SSE visible
05 Jul ? 04:24:47 10° N 04:28:16 25° WNW 04:31:26 12° WSW visible
06 Jul ? 02:59:08 10° NNE 03:03:16 48° E 03:05:17 27° SSE visible
06 Jul ? 04:35:27 10° NNW 04:38:38 21° WNW 04:41:47 10° WSW visible
